OK2DDS-5 Weather Reports


time (UTC)temp
F
wind
direction
speed
knots
gust
knots
rain 1hr
in
rain 24hr
in
rain mn
in
humidity
%
barometer
mb
20260505041628 56 0 0.0 28.7 0.00 0.00 0.00 1002.0
20260505040128 57 0 0.0 10.4 0.00 0.00 0.00 1002.0
20260505034628 57 0 0.0 10.4 0.00 0.00 0.00 1002.0
20260505033128 58 0 0.0 13.0 0.00 0.00 0.00 1002.0
20260505031628 58 0 0.0 18.2 0.00 0.00 0.00 1002.0
20260505030128 58 0 0.0 18.2 0.00 0.00 0.00 1002.0
20260505024628 59 0 0.0 13.0 0.00 0.00 0.00 1002.0
20260505023128 60 0 0.0 20.9 0.00 0.00 0.00 1002.0
20260505021628 60 0 0.0 17.4 0.00 0.00 0.00 1003.0
20260505020128 60 0 0.0 6.1 0.00 0.00 0.00 1003.0
20260505014628 60 0 0.0 9.6 0.00 0.00 0.00 1003.0
20260505013128 60 0 0.0 17.4 0.00 0.00 0.00 1003.0
20260505011628 60 0 0.0 13.0 0.00 0.00 0.00 1003.0
20260505010128 61 0 0.0 7.8 0.00 0.00 0.00 1003.0
20260505004628 61 0 0.0 12.2 0.00 0.00 0.00 1003.0
20260505003128 61 0 0.0 16.5 0.00 0.00 0.00 1003.0
20260505001628 61 0 0.0 24.3 0.00 0.00 0.00 1003.0
20260505000128 61 0 0.0 15.6 0.00 0.00 0.00 1003.0
20260504234628 62 0 0.0 7.8 0.00 0.00 0.00 1004.0
20260504233128 62 0 0.0 20.0 0.00 0.00 0.00 1004.0
20260504231628 62 0 0.0 10.4 0.00 0.00 0.00 1004.0
20260504230128 63 0 0.0 19.1 0.00 0.00 0.00 1004.0
20260504224628 63 0 0.0 20.9 0.00 0.00 0.00 1004.0
20260504223128 64 0 0.0 35.6 0.00 0.00 0.00 1004.0
20260504221628 64 0 0.0 11.3 0.00 0.00 0.00 1004.0
20260504220128 65 0 0.0 10.4 0.00 0.00 0.00 1004.0
20260504214628 65 0 0.0 13.0 0.00 0.00 0.00 1004.0
20260504213128 65 0 0.0 20.0 0.00 0.00 0.00 1004.0
20260504211628 65 0 0.0 13.0 0.00 0.00 0.00 1004.0
20260504210128 66 0 0.0 8.7 0.00 0.00 0.00 1004.0
20260504204628 66 0 0.0 10.4 0.00 0.00 0.00 1005.0
20260504203128 67 0 0.0 5.2 0.00 0.00 0.00 1005.0
20260504201628 67 0 0.0 32.2 0.00 0.00 0.00 1005.0
20260504200128 68 0 0.0 16.5 0.00 0.00 0.00 1005.0
20260504194628 69 0 0.0 7.8 0.00 0.00 0.00 1005.0
20260504193128 69 0 0.0 26.9 0.00 0.00 0.00 1004.0
20260504191628 70 0 0.0 18.2 0.00 0.00 0.00 1004.0
20260504190128 71 0 0.0 6.1 0.00 0.00 0.00 1004.0
20260504184628 72 0 0.0 17.4 0.00 0.00 0.00 1004.0
20260504183128 73 0 0.0 15.6 0.00 0.00 0.00 1004.0
20260504181628 74 0 0.0 7.0 0.00 0.00 0.00 1004.0
20260504180128 75 0 0.0 5.2 0.00 0.00 0.00 1004.0
20260504174628 77 0 0.0 7.8 0.00 0.00 0.00 1004.0
20260504173128 79 0 0.0 6.1 0.00 0.00 0.00 1004.0
20260504171628 79 0 0.0 6.1 0.00 0.00 0.00 1004.0
20260504170128 80 0 0.0 5.2 0.00 0.00 0.00 1004.0
20260504160128 88 0 0.0 10.4 0.00 0.00 0.00 1004.0
20260504150128 92 0 0.0 6.1 0.00 0.00 0.00 1004.0
20260504140128 89 0 0.9 7.8 0.00 0.00 0.00 1005.0
20260504130128 92 0 0.9 6.1 0.00 0.00 0.00 1005.0
20260504120128 88 0 0.9 8.7 0.00 0.00 0.00 1006.0
20260504110128 83 0 0.9 10.4 0.00 0.00 0.00 1006.0
20260504100128 82 0 0.9 9.6 0.00 0.00 0.00 1007.0
20260504090128 75 0 0.0 10.4 0.00 0.00 0.00 1007.0
20260504081629 72 0 0.9 16.5 0.00 0.00 0.00 1007.0
20260504080128 70 0 0.9 20.0 0.00 0.00 0.00 1007.0
20260504070128 66 0 0.9 12.2 0.00 0.00 0.00 1007.0
20260504060128 62 0 0.0 11.3 0.00 0.00 0.00 1007.0
20260504050128 58 0 0.0 24.3 0.00 0.00 0.00 1007.0